Home > Weather > Huntington Beach > Past weeks

Flag for USA Weather for the Past 2 Weeks in Huntington Beach, California, USA

Now
59 °F

Passing clouds.


Feels Like: 59 °F
Forecast: 57 / 66 °F
Wind: No wind

Location: John Wayne Airport-Orange County Airport

Current Time: May 6, 2016 at 4:38:20 AM

Latest Report: May 6, 2016 at 4:04 AM


Visibility: 10 mi

Pressure: 29.83 "Hg

Humidity: 82%

Dew Point: 54 °F

Location of Huntington BeachLocation

Historic Weather in Huntington Beach — Graph

°F

Huntington Beach Temperature Yesterday

Maximum temperature yesterday: 68 °F (at 3:53 PM)
Minimum temperature yesterday: 60 °F (at 12:53 AM)
Average temperature yesterday: 63 °F

High & Low Weather Summary for the Past Weeks

 TemperatureHumidityPressure
High76 °F (Apr 21, 1:53 PM)93% (Apr 30, 5:53 AM)30.04 "Hg (Apr 30, 5:53 AM)
Low52 °F (Apr 26, 4:53 AM)31% (Apr 21, 2:53 PM)29.75 "Hg (Apr 27, 11:53 PM)
Average62 °F68%29.92 "Hg
* Reported Apr 21 2:53 AM — May 6 2:53 AM, Huntington Beach, Weather by CustomWeather, © 2016

Note: Actual official high and low records may vary slightly from our data, if they occured in-between our weather recording intervals... More about our weather records

Advertising

Huntington Beach Weather History for the Previous 24 Hours

Scroll right to see more
 ConditionsComfort  
Time TempWeatherWind HumidityBarometerVisibility
2:53 AM
Fri, May 6
59 °FOvercast.No wind84%29.83 "Hg10 mi
1:53 AM60 °FMostly cloudy.5 mph80%29.85 "Hg10 mi
1:00 AM61 °FMostly cloudy.No wind77%29.87 "Hg10 mi
11:53 PM
Thu, May 5
61 °FMostly cloudy.3 mph72%29.88 "Hg10 mi
10:53 PM62 °FMostly cloudy.5 mph73%29.89 "Hg10 mi
9:53 PM61 °FLight rain. Mostly cloudy.7 mph72%29.88 "Hg8 mi
8:53 PM62 °FMostly cloudy.8 mph60%29.87 "Hg10 mi
7:53 PM62 °FOvercast.7 mph65%29.86 "Hg10 mi
6:53 PM63 °FBroken clouds.9 mph63%29.85 "Hg10 mi
5:53 PM65 °FMostly cloudy.10 mph54%29.86 "Hg10 mi
4:53 PM67 °FPartly sunny.8 mph49%29.88 "Hg10 mi
3:53 PM68 °FPartly sunny.13 mph45%29.89 "Hg10 mi
2:53 PM66 °FOvercast.8 mph50%29.92 "Hg10 mi
1:53 PM66 °FBroken clouds.9 mph49%29.93 "Hg10 mi
12:53 PM65 °FPartly sunny.14 mph63%29.93 "Hg10 mi
11:53 AM65 °FMore clouds than sun.12 mph63%29.93 "Hg10 mi
10:53 AM62 °FOvercast.6 mph73%29.92 "Hg10 mi
10:04 AM63 °FMostly cloudy.8 mph73%29.92 "Hg10 mi
9:53 AM62 °FBroken clouds.10 mph73%29.92 "Hg10 mi
8:53 AM62 °FMore clouds than sun.8 mph70%29.92 "Hg10 mi
7:53 AM61 °FPartly sunny.6 mph70%29.92 "Hg10 mi
6:53 AM60 °FPassing clouds.3 mph75%29.91 "Hg10 mi
5:53 AM60 °FOvercast.6 mph75%29.90 "Hg10 mi
5:02 AM61 °FMostly cloudy.No wind72%29.91 "Hg10 mi
Weather by CustomWeather, © 2016

See weather overviewHow to use our weather pages